GW6132 Weather Reports


time (UTC)temp
C
wind
direction
speed
KPH
gust
KPH
rain 1hr
cm
rain 24hr
cm
rain mn
cm
humidity
%
barometer
mb
20260507024222 32 102 3.2 6.4 0.00 0.00 0.00 60 1008.0
20260507023722 32 71 4.8 9.7 0.00 0.00 0.00 60 1007.0
20260507023223 32 93 6.4 14.5 0.00 0.00 0.00 59 1007.0
20260507022724 33 113 6.4 11.3 0.00 0.00 0.00 59 1007.0
20260507022222 33 69 4.8 9.7 0.00 0.00 0.00 59 1007.0
20260507021723 33 98 9.7 14.5 0.00 0.00 0.00 58 1007.0
20260507021222 33 38 8.0 12.9 0.00 0.00 0.00 58 1007.0
20260507020723 33 125 6.4 12.9 0.00 0.00 0.00 58 1007.0
20260507020223 33 73 11.3 16.1 0.00 0.00 0.00 58 1007.0
20260507015723 33 105 11.3 17.7 0.00 0.00 0.00 58 1007.0
20260507015223 33 100 9.7 14.5 0.00 0.00 0.00 58 1007.0
20260507014722 33 99 9.7 17.7 0.00 0.00 0.00 57 1007.0
20260507014223 34 68 9.7 16.1 0.00 0.00 0.00 57 1007.0
20260507013723 34 101 6.4 12.9 0.00 0.00 0.00 57 1006.0
20260507013222 34 118 8.0 12.9 0.00 0.00 0.00 56 1006.0
20260507012724 34 118 8.0 16.1 0.00 0.00 0.00 56 1006.0
20260507012223 34 93 11.3 17.7 0.00 0.00 0.00 56 1006.0
20260507011724 35 124 9.7 16.1 0.00 0.00 0.00 55 1006.0
20260507011223 35 90 12.9 17.7 0.00 0.00 0.00 55 1006.0
20260507010723 35 106 11.3 17.7 0.00 0.00 0.00 55 1006.0
20260507010223 35 85 11.3 17.7 0.00 0.00 0.00 54 1006.0
20260507005723 35 106 11.3 19.3 0.00 0.00 0.00 54 1006.0
20260507005223 35 84 9.7 16.1 0.00 0.00 0.00 53 1006.0
20260507004722 36 97 9.7 17.7 0.00 0.00 0.00 53 1006.0
20260507004222 36 112 14.5 20.9 0.00 0.00 0.00 52 1006.0
20260507003723 36 105 9.7 17.7 0.00 0.00 0.00 52 1006.0
20260507003222 36 62 11.3 20.9 0.00 0.00 0.00 51 1006.0
20260507002723 36 83 11.3 20.9 0.00 0.00 0.00 51 1006.0
20260507002224 37 87 9.7 17.7 0.00 0.00 0.00 51 1006.0
20260507001723 37 94 14.5 22.5 0.00 0.00 0.00 50 1005.0
20260507001223 37 84 11.3 20.9 0.00 0.00 0.00 49 1005.0
20260507000722 37 103 12.9 19.3 0.00 0.00 0.00 49 1005.0
20260507000223 38 100 11.3 20.9 0.00 0.00 0.00 48 1005.0
20260506235723 38 92 12.9 20.9 0.00 0.00 0.00 47 1005.0
20260506235223 38 89 14.5 22.5 0.00 0.00 0.00 46 1005.0
20260506234725 39 101 9.7 20.9 0.00 0.00 0.00 43 1005.0
20260506234228 39 92 9.7 16.1 0.00 0.00 0.00 42 1005.0
20260506233722 39 91 6.4 12.9 0.00 0.00 0.00 41 1005.0
20260506233222 40 115 8.0 14.5 0.00 0.00 0.00 41 1005.0
20260506232722 40 61 6.4 11.3 0.00 0.00 0.00 40 1005.0
20260506232223 40 57 6.4 12.9 0.00 0.00 0.00 40 1005.0
20260506231224 40 81 6.4 12.9 0.00 0.00 0.00 40 1005.0
20260506230722 40 144 6.4 12.9 0.00 0.00 0.00 39 1005.0
20260506230232 40 124 6.4 11.3 0.00 0.00 0.00 39 1005.0
20260506225722 40 77 9.7 16.1 0.00 0.00 0.00 38 1005.0
20260506225222 40 145 6.4 12.9 0.00 0.00 0.00 38 1005.0
20260506224723 40 255 6.4 11.3 0.00 0.00 0.00 38 1005.0
20260506224222 40 70 8.0 12.9 0.00 0.00 0.00 38 1005.0
20260506223722 40 83 8.0 16.1 0.00 0.00 0.00 37 1005.0
20260506223223 40 84 8.0 14.5 0.00 0.00 0.00 37 1005.0
20260506222722 40 126 11.3 17.7 0.00 0.00 0.00 38 1005.0
20260506222223 40 131 11.3 16.1 0.00 0.00 0.00 37 1005.0
20260506221722 41 131 6.4 11.3 0.00 0.00 0.00 37 1005.0
20260506221222 41 54 9.7 12.9 0.00 0.00 0.00 37 1005.0
20260506220722 41 137 4.8 11.3 0.00 0.00 0.00 38 1005.0
20260506220223 40 124 9.7 17.7 0.00 0.00 0.00 37 1005.0
20260506215723 40 13 11.3 19.3 0.00 0.00 0.00 37 1005.0
20260506215223 40 96 9.7 16.1 0.00 0.00 0.00 38 1005.0
20260506214723 40 19 11.3 17.7 0.00 0.00 0.00 38 1005.0
20260506214222 41 132 9.7 17.7 0.00 0.00 0.00 38 1005.0
20260506213722 41 60 9.7 12.9 0.00 0.00 0.00 37 1005.0
20260506213223 41 87 8.0 11.3 0.00 0.00 0.00 36 1005.0
20260506212724 41 50 9.7 12.9 0.00 0.00 0.00 39 1005.0
20260506212223 40 70 8.0 14.5 0.00 0.00 0.00 39 1005.0
20260506211723 40 101 11.3 20.9 0.00 0.00 0.00 38 1005.0
20260506211222 40 75 11.3 17.7 0.00 0.00 0.00 39 1005.0
20260506210723 40 89 11.3 17.7 0.00 0.00 0.00 39 1005.0
20260506210223 40 84 11.3 16.1 0.00 0.00 0.00 39 1005.0
20260506205722 40 87 9.7 16.1 0.00 0.00 0.00 40 1005.0
20260506205223 40 201 9.7 14.5 0.00 0.00 0.00 42 1005.0
20260506204723 40 96 9.7 16.1 0.00 0.00 0.00 40 1005.0
20260506204223 40 53 6.4 9.7 0.00 0.00 0.00 41 1005.0
20260506203722 40 49 6.4 12.9 0.00 0.00 0.00 40 1006.0
20260506203223 40 10 6.4 16.1 0.00 0.00 0.00 41 1006.0
20260506202722 40 110 6.4 12.9 0.00 0.00 0.00 41 1006.0
20260506202223 40 196 11.3 16.1 0.00 0.00 0.00 42 1006.0
20260506201723 40 70 9.7 17.7 0.00 0.00 0.00 42 1006.0
20260506201223 40 308 8.0 14.5 0.00 0.00 0.00 41 1006.0
20260506200723 40 67 11.3 19.3 0.00 0.00 0.00 42 1006.0
20260506200223 40 65 6.4 14.5 0.00 0.00 0.00 40 1006.0
20260506195722 39 102 12.9 19.3 0.00 0.00 0.00 42 1006.0
20260506194738 40 124 6.4 14.5 0.00 0.00 0.00 41 1006.0
20260506194222 40 86 6.4 12.9 0.00 0.00 0.00 42 1007.0
20260506193725 39 78 11.3 17.7 0.00 0.00 0.00 43 1007.0
20260506193225 39 135 8.0 19.3 0.00 0.00 0.00 42 1007.0
20260506192726 39 163 9.7 14.5 0.00 0.00 0.00 43 1007.0
20260506192223 39 57 8.0 14.5 0.00 0.00 0.00 41 1007.0
20260506191727 39 80 9.7 14.5 0.00 0.00 0.00 42 1007.0
20260506191226 40 216 4.8 9.7 0.00 0.00 0.00 43 1007.0
20260506190727 39 165 6.4 12.9 0.00 0.00 0.00 43 1007.0
20260506190226 38 70 8.0 14.5 0.00 0.00 0.00 45 1007.0
20260506185723 38 81 6.4 12.9 0.00 0.00 0.00 44 1008.0
20260506185223 38 129 9.7 14.5 0.00 0.00 0.00 45 1008.0
20260506184723 38 77 11.3 16.1 0.00 0.00 0.00 46 1008.0
20260506184222 38 196 9.7 17.7 0.00 0.00 0.00 47 1008.0
20260506183722 37 75 9.7 20.9 0.00 0.00 0.00 47 1008.0
20260506183223 38 29 9.7 17.7 0.00 0.00 0.00 46 1008.0
20260506182722 38 142 6.4 19.3 0.00 0.00 0.00 46 1008.0
20260506182222 37 70 9.7 16.1 0.00 0.00 0.00 47 1008.0
20260506181723 38 109 8.0 14.5 0.00 0.00 0.00 47 1008.0
20260506181224 37 153 8.0 14.5 0.00 0.00 0.00 47 1008.0
20260506180723 37 160 8.0 12.9 0.00 0.00 0.00 48 1008.0
20260506180222 37 81 8.0 16.1 0.00 0.00 0.00 48 1008.0
20260506175722 37 155 6.4 9.7 0.00 0.00 0.00 49 1008.0
20260506175223 37 92 8.0 12.9 0.00 0.00 0.00 50 1009.0
20260506174723 36 162 8.0 16.1 0.00 0.00 0.00 52 1009.0
20260506174222 36 62 8.0 17.7 0.00 0.00 0.00 52 1009.0
20260506173722 37 121 8.0 12.9 0.00 0.00 0.00 52 1009.0
20260506173222 37 33 6.4 16.1 0.00 0.00 0.00 51 1009.0
20260506172723 36 106 4.8 12.9 0.00 0.00 0.00 54 1009.0
20260506172223 36 207 6.4 11.3 0.00 0.00 0.00 52 1009.0
20260506171722 36 103 6.4 12.9 0.00 0.00 0.00 54 1009.0
20260506171222 35 122 6.4 12.9 0.00 0.00 0.00 55 1009.0
20260506170724 36 146 6.4 14.5 0.00 0.00 0.00 55 1009.0
20260506170223 35 131 8.0 12.9 0.00 0.00 0.00 56 1009.0
20260506165722 35 96 6.4 11.3 0.00 0.00 0.00 57 1009.0
20260506165222 34 123 8.0 14.5 0.00 0.00 0.00 59 1009.0
20260506164729 34 60 6.4 12.9 0.00 0.00 0.00 59 1009.0
20260506164222 34 137 6.4 14.5 0.00 0.00 0.00 58 1009.0
20260506163723 33 60 8.0 14.5 0.00 0.00 0.00 60 1010.0
20260506163226 33 124 6.4 12.9 0.00 0.00 0.00 60 1010.0
20260506162722 33 71 8.0 12.9 0.00 0.00 0.00 60 1010.0
20260506162222 33 97 8.0 12.9 0.00 0.00 0.00 59 1010.0
20260506161723 33 129 6.4 11.3 0.00 0.00 0.00 59 1010.0
20260506161223 33 67 4.8 9.7 0.00 0.00 0.00 60 1010.0
20260506160723 33 27 8.0 12.9 0.00 0.00 0.00 60 1010.0
20260506160225 33 128 4.8 9.7 0.00 0.00 0.00 63 1010.0
20260506155725 32 124 4.8 11.3 0.00 0.00 0.00 65 1010.0
20260506155223 32 124 8.0 12.9 0.00 0.00 0.00 65 1010.0
20260506154722 32 163 4.8 11.3 0.00 0.00 0.00 67 1010.0
20260506154223 31 148 8.0 12.9 0.00 0.00 0.00 71 1010.0
20260506153724 31 102 6.4 12.9 0.00 0.00 0.00 71 1010.0
20260506153224 31 114 6.4 12.9 0.00 0.00 0.00 74 1010.0
20260506152723 30 55 6.4 12.9 0.00 0.00 0.00 77 1010.0
20260506152223 30 110 9.7 14.5 0.00 0.00 0.00 78 1010.0
20260506151723 30 107 8.0 12.9 0.00 0.00 0.00 77 1010.0
20260506151222 30 97 8.0 12.9 0.00 0.00 0.00 78 1010.0
20260506150726 30 123 8.0 12.9 0.00 0.00 0.00 78 1010.0
20260506150228 30 88 8.0 12.9 0.00 0.00 0.00 77 1010.0
20260506145725 30 83 6.4 11.3 0.00 0.00 0.00 76 1010.0
20260506145225 30 91 6.4 9.7 0.00 0.00 0.00 75 1010.0
20260506144723 30 83 4.8 11.3 0.00 0.00 0.00 76 1010.0
20260506144224 30 151 8.0 11.3 0.00 0.00 0.00 74 1010.0
20260506143237 29 154 8.0 11.3 0.00 0.00 0.00 74 1010.0
20260506142723 29 197 6.4 11.3 0.00 0.00 0.00 74 1010.0
20260506142224 29 188 4.8 8.0 0.00 0.00 0.00 75 1010.0
20260506141722 29 141 4.8 9.7 0.00 0.00 0.00 74 1010.0
20260506141223 29 146 4.8 9.7 0.00 0.00 0.00 76 1010.0
20260506140723 28 189 4.8 6.4 0.00 0.00 0.00 77 1010.0
20260506140225 28 156 4.8 11.3 0.00 0.00 0.00 77 1010.0
20260506135723 28 87 3.2 9.7 0.00 0.00 0.00 78 1010.0
20260506135222 27 183 4.8 9.7 0.00 0.00 0.00 80 1010.0
20260506134723 27 170 4.8 9.7 0.00 0.00 0.00 80 1010.0
20260506134223 27 208 4.8 8.0 0.00 0.00 0.00 81 1010.0
20260506133728 27 225 3.2 4.8 0.00 0.00 0.00 82 1010.0
20260506133222 27 53 3.2 4.8 0.00 0.00 0.00 82 1010.0
20260506132723 27 126 4.8 6.4 0.00 0.00 0.00 83 1010.0
20260506132223 27 80 3.2 6.4 0.00 0.00 0.00 83 1010.0
20260506131723 27 119 3.2 6.4 0.00 0.00 0.00 85 1010.0
20260506131223 27 117 1.6 3.2 0.00 0.00 0.00 86 1010.0
20260506130723 26 121 3.2 4.8 0.00 0.00 0.00 86 1010.0
20260506130225 26 59 3.2 4.8 0.00 0.00 0.00 86 1010.0
20260506125723 26 63 1.6 3.2 0.00 0.00 0.00 88 1010.0
20260506125223 26 62 0.0 3.2 0.00 0.00 0.00 90 1010.0
20260506124724 26 9 0.0 0.0 0.00 0.00 0.00 94 1010.0
20260506124223 26 324 0.0 3.2 0.00 0.00 0.00 94 1010.0
20260506123724 25 35 0.0 3.2 0.00 0.00 0.00 94 1010.0
20260506123222 25 25 0.0 0.0 0.00 0.00 0.00 95 1010.0
20260506122723 25 353 0.0 0.0 0.00 0.00 0.00 95 1010.0
20260506122222 25 327 0.0 0.0 0.00 0.00 0.00 95 1010.0
20260506121722 25 316 0.0 1.6 0.00 0.00 0.00 95 1010.0
20260506121223 25 277 0.0 0.0 0.00 0.00 0.00 95 1010.0
20260506120723 25 320 0.0 0.0 0.00 0.00 0.00 95 1010.0
20260506120223 25 315 0.0 0.0 0.00 0.00 0.00 95 1010.0
20260506115722 25 271 0.0 1.6 0.00 0.00 0.00 95 1010.0
20260506115223 25 297 0.0 0.0 0.00 0.00 0.00 94 1010.0
20260506114722 25 8 0.0 1.6 0.00 0.00 0.00 94 1010.0
20260506114222 25 355 0.0 0.0 0.00 0.00 0.00 94 1010.0
20260506113726 25 273 0.0 1.6 0.00 0.00 0.00 94 1010.0
20260506113227 25 233 0.0 1.6 0.00 0.00 0.00 94 1010.0
20260506112727 25 306 0.0 0.0 0.00 0.00 0.00 94 1010.0
20260506112223 25 306 0.0 1.6 0.00 0.00 0.00 94 1010.0
20260506111727 25 245 0.0 1.6 0.00 0.00 0.00 94 1010.0
20260506111226 25 251 0.0 1.6 0.00 0.00 0.00 94 1010.0
20260506110722 25 348 0.0 0.0 0.00 0.00 0.00 94 1010.0
20260506110225 25 228 0.0 0.0 0.00 0.00 0.00 94 1010.0
20260506105725 25 228 0.0 1.6 0.00 0.00 0.00 94 1010.0
20260506105227 25 227 0.0 0.0 0.00 0.00 0.00 94 1010.0
20260506104727 25 228 0.0 1.6 0.00 0.00 0.00 94 1010.0
20260506104225 25 227 1.6 3.2 0.00 0.00 0.00 94 1010.0
20260506103726 25 197 3.2 3.2 0.00 0.00 0.00 93 1010.0
20260506103225 25 198 1.6 3.2 0.00 0.00 0.00 93 1010.0
20260506102727 25 194 1.6 3.2 0.00 0.00 0.00 93 1009.0
20260506102225 25 180 0.0 3.2 0.00 0.00 0.00 93 1009.0
20260506101724 25 260 1.6 3.2 0.00 0.00 0.00 93 1009.0
20260506101226 25 244 0.0 3.2 0.00 0.00 0.00 93 1009.0
20260506100726 25 2 0.0 0.0 0.00 0.00 0.00 93 1009.0
20260506100226 25 322 0.0 0.0 0.00 0.00 0.00 93 1009.0
20260506095723 25 284 0.0 1.6 0.00 0.00 0.00 92 1010.0
20260506095222 25 290 0.0 0.0 0.00 0.00 0.00 92 1009.0
20260506094723 25 264 0.0 1.6 0.00 0.00 0.00 92 1010.0
20260506094222 25 258 0.0 1.6 0.00 0.00 0.00 92 1009.0
20260506093723 25 324 0.0 0.0 0.00 0.00 0.00 92 1010.0
20260506093223 26 351 0.0 3.2 0.00 0.00 0.00 92 1009.0
20260506092223 26 228 1.6 3.2 0.00 0.00 0.00 92 1010.0
20260506091723 26 211 1.6 1.6 0.00 0.00 0.00 91 1009.0
20260506091224 26 209 1.6 1.6 0.00 0.00 0.00 91 1010.0
20260506090726 26 236 0.0 1.6 0.00 0.00 0.00 90 1010.0
20260506090223 26 344 0.0 0.0 0.00 0.00 0.00 90 1010.0
20260506085723 26 354 0.0 1.6 0.00 0.00 0.00 90 1010.0
20260506085222 26 266 1.6 3.2 0.00 0.00 0.00 90 1010.0
20260506084723 26 237 0.0 3.2 0.00 0.00 0.00 90 1010.0
20260506084223 26 62 1.6 3.2 0.00 0.00 0.00 90 1010.0
20260506083723 26 341 0.0 1.6 0.00 0.00 0.00 90 1010.0
20260506083223 26 340 0.0 3.2 0.00 0.00 0.00 90 1010.0
20260506082723 26 293 0.0 3.2 0.00 0.00 0.00 90 1010.0
20260506082222 26 289 0.0 1.6 0.00 0.00 0.00 90 1010.0
20260506081723 26 239 1.6 3.2 0.00 0.00 0.00 90 1010.0
20260506081225 26 241 0.0 3.2 0.00 0.00 0.00 89 1010.0
20260506080725 26 328 0.0 1.6 0.00 0.00 0.00 89 1010.0
20260506080222 26 315 0.0 1.6 0.00 0.00 0.00 89 1010.0
20260506073223 26 283 0.0 1.6 0.00 0.00 0.00 89 1010.0
20260506072722 26 326 0.0 1.6 0.00 0.00 0.00 89 1010.0
20260506072223 26 227 1.6 1.6 0.00 0.00 0.00 89 1010.0
20260506071723 26 227 1.6 1.6 0.00 0.00 0.00 88 1010.0
20260506071223 27 265 0.0 1.6 0.00 0.00 0.00 88 1010.0
20260506070722 27 265 0.0 1.6 0.00 0.00 0.00 88 1010.0
20260506070222 27 294 0.0 1.6 0.00 0.00 0.00 87 1010.0
20260506061722 27 314 0.0 3.2 0.00 0.00 0.00 87 1011.0
20260506061223 27 277 1.6 3.2 0.00 0.00 0.00 87 1011.0
20260506060722 27 315 1.6 4.8 0.00 0.00 0.00 87 1011.0
20260506060224 27 318 1.6 3.2 0.00 0.00 0.00 87 1011.0
20260506051223 27 336 3.2 6.4 0.00 0.00 0.00 84 1011.0
20260506050723 28 356 3.2 4.8 0.00 0.00 0.00 84 1011.0
20260506050222 28 351 1.6 4.8 0.00 0.00 0.00 84 1011.0
20260506044723 28 352 1.6 4.8 0.00 0.00 0.00 83 1011.0
20260506044222 28 331 1.6 3.2 0.00 0.00 0.00 83 1011.0
20260506043722 28 4 1.6 4.8 0.00 0.00 0.00 82 1010.0
20260506043223 28 317 1.6 3.2 0.00 0.00 0.00 82 1010.0
20260506042723 28 22 0.0 3.2 0.00 0.00 0.00 82 1010.0
20260506042223 28 357 0.0 3.2 0.00 0.00 0.00 82 1010.0
20260506041723 28 21 3.2 4.8 0.00 0.00 0.00 82 1010.0
20260506041224 28 4 1.6 3.2 0.00 0.00 0.00 81 1010.0
20260506040723 28 348 1.6 4.8 0.00 0.00 0.00 81 1010.0
20260506040223 28 26 3.2 6.4 0.00 0.00 0.00 81 1010.0
20260506035722 28 13 1.6 4.8 0.00 0.00 0.00 81 1010.0
20260506035222 28 319 1.6 4.8 0.00 0.00 0.00 81 1010.0
20260506034723 28 330 3.2 4.8 0.00 0.00 0.00 80 1010.0
20260506034223 28 351 3.2 6.4 0.00 0.00 0.00 80 1010.0
20260506033722 28 0 3.2 4.8 0.00 0.00 0.00 80 1010.0
20260506033223 28 1 3.2 6.4 0.00 0.00 0.00 79 1010.0
20260506032723 29 312 1.6 4.8 0.00 0.00 0.00 79 1010.0
20260506032222 29 0 1.6 6.4 0.00 0.00 0.00 79 1010.0
20260506031722 29 335 3.2 4.8 0.00 0.00 0.00 79 1010.0
20260506031222 29 291 1.6 4.8 0.00 0.00 0.00 78 1009.0
20260506030723 29 270 1.6 4.8 0.00 0.00 0.00 78 1010.0
20260506030222 29 280 1.6 4.8 0.00 0.00 0.00 78 1009.0
20260506025722 29 287 1.6 4.8 0.00 0.00 0.00 78 1009.0
20260506025223 29 5 4.8 8.0 0.00 0.00 0.00 78 1009.0
20260506024723 29 335 3.2 6.4 0.00 0.00 0.00 78 1009.0